Home   Weather   Vaduz   Past weeks

Flag for Liechtenstein Past Weather in Vaduz, Liechtenstein — Yesterday and Last 2 Weeks

Now
29 °F

Chilly.


Feels Like: 29 °F
Forecast: 29 / 50 °F
Wind: 1 mph from North

Location: Vaduz

Current Time: Dec 5, 2016 at 9:52:41 pm

Latest Report: Dec 5, 2016 at 9:00 pm


Visibility: N/A

Pressure: 30.47 "Hg

Humidity: 93%

Dew Point: 27 °F

Location of VaduzLocation

Past Weather in Vaduz — Graph

°F

Vaduz Temperature Yesterday

Maximum temperature yesterday: 39 °F (at 3:00 pm)
Minimum temperature yesterday: 22 °F (at 8:00 am)
Average temperature yesterday: 28 °F

High & Low Weather Summary for the Past Weeks

 TemperatureHumidityPressure
High67 °F (Nov 22, 1:00 pm)97% (Nov 27, 8:00 am)30.67 "Hg (Nov 27, 8:00 am)
Low22 °F (Dec 5, 6:00 am)24% (Nov 24, 7:00 am)29.61 "Hg (Nov 21, 1:00 pm)
Average43 °F68%30.15 "Hg
* Reported Nov 20 8:00 pm — Dec 5 8:00 pm, Vaduz, Weather by CustomWeather, © 2016

Note: Actual official high and low records may vary slightly from our data, if they occured in-between our weather recording intervals... More about our weather records

Advertising

Vaduz Weather History for the Previous 24 Hours

Scroll right to see more
 ConditionsComfort  
Time TempWeatherWind HumidityBarometerVisibility
8:00 pm
Mon, Dec 5
28 °FChilly.1 mph95%30.47 "HgN/A
7:00 pm29 °FClear.2 mph91%30.46 "Hg1 mi
6:00 pm29 °FChilly.No wind94%30.46 "HgN/A
5:00 pm30 °FChilly.No wind92%30.45 "HgN/A
4:00 pm31 °FHaze.2 mph89%30.43 "Hg5 mi
3:00 pm34 °FChilly.3 mph78%30.41 "HgN/A
2:00 pm36 °FChilly.7 mph75%30.40 "HgN/A
1:00 pm36 °FChilly.3 mph72%30.40 "HgN/A
12:00 pm34 °FChilly.3 mph76%30.41 "HgN/A
11:00 am33 °FChilly.3 mph77%30.42 "HgN/A
10:00 am38 °FSunny.6 mph46%30.40 "Hg5 mi
9:00 am28 °FChilly.6 mph75%30.43 "HgN/A
8:00 am22 °FCold.1 mph92%30.45 "HgN/A
7:00 am22 °FClear.No wind94%30.44 "Hg3 mi
6:00 am22 °FCold.No wind93%30.44 "HgN/A
5:00 am22 °FCold.1 mph93%30.44 "HgN/A
4:00 am23 °FFog.No wind94%30.43 "Hg3 mi
1:00 am24 °FFog.No wind96%30.42 "Hg3 mi
12:00 am25 °FChilly.No wind96%30.42 "HgN/A
11:00 pm
Sun, Dec 4
25 °FChilly.No wind97%30.42 "HgN/A
10:00 pm26 °FFog.2 mph93%30.41 "Hg3 mi
9:00 pm28 °FChilly.No wind94%30.40 "HgN/A
Weather by CustomWeather, © 2016

See weather overviewHow to use our weather pages